GAOFEN 5-01

Last updated on Tue Nov 21 2023 00:02:24 GMT+0000 (Coordinated Universal Time)

1 43461U 18043A 23324.40921190 .00000512 00000+0 11978-3 0 9990 2 43461 98.3293 268.9057 0003097 103.3833 256.7711 14.58713337294580

Satellite not in orbit

GAOFEN 5-01